STARLINK-1553 (46348 NORAD) Tracking and Keplerian Element Data

This shows tracking and keplerian element data for the satellite.

Feedback or suggestion? Click here.




ElementValue
Catalog46348
NameSTARLINK-1553
Epoch Orbit177
Epoch Day267.58334491
Epoch Year2020
RAAN331.0384
Inclination53
Eccentricity0.0001462
Argument of Perigee58.4207
Mean Anonmoly200.8738
Mean Motion15.6274978
Decay Rate0.00042934
L11 46348U 20062Z 20267.58334491 .00042934 00000-0 47229-3 0 9998
L22 46348 53.0000 331.0384 0001462 58.4207 200.8738 15.62749780 1778

Live tracking and technical data element details for STARLINK-1553 (NORAD 46348). STARLINK-1553 can be tracked NOW for your location showing map with azimuth and elevation plus other details from your city location.

Track the satellite on the map from your city or location and see movement details for azimuth, elevation, latitude, longitude, range, height, and movement on the map or in text.







IsCatalogInMostPopularTable: catalog: 46348, numindb: 2
Update: records affected: 1



GetName: 46348 STARLINK-1553

Hit Count: updated at: Thu, 24 Sep 2020 17:11:08 GMT